Tracking 21082 objects as of 6-Aug-2020
HD Live streaming from Space Station
objects crossing your sky now

COSMOS 1655

Track COSMOS 1655 now!
10-day predictions
COSMOS 1655 is classified as:


NORAD ID: 15751
Int'l Code: 1985-041A
Perigee: 981.9 km
Apogee: 1,019.2 km
Inclination: 82.9 °
Period: 105.0 minutes
Semi major axis: 7371 km
RCS: 1.6706 m2 (large)
Launch date: May 30, 1985
Source: Commonwealth of Independent States (former USSR) (CIS)
Launch site: PLESETSK MISSILE AND SPACE COMPLEX (PKMTR)
aabbcc
Your satellite tracking list
Your tracking list is empty




NASA's NSSDC Master Catalog

Two Line Element Set (TLE):
1 15751U 85041A   20218.49347979  .00000013  00000-0 -22321-5 0  9992
2 15751  82.9483 203.1209 0025282 280.4060 192.7128 13.71711436761324
Source of the keplerian elements: AFSPC